Theta_e
302 302 302 303 305 306 303 294 283 300 303 287 285 284 285 287 284 286 286 285 284 282 284 282 283 283 285 290 292 288 292 288 282 283 287 290 291 287 288 281 280 282 278 280
302 303 302 302 304 305 297 285 287 298 297 280 282 284 285 285 284 285 285 284 285 285 284 280 284 285 289 290 291 289 291 285 280 279 284 289 287 289 290 288 284 281 279 280
301 302 302 303 303 305 294 286 281 289 292 290 285 283 283 282 286 285 286 285 286 285 283 284 282 283 288 291 291 296 294 285 281 277 279 284 284 286 288 287 281 282 283 284
301 301 302 302 303 304 293 285 283 285 282 284 285 284 281 281 278 284 286 285 285 284 277 281 281 285 286 289 292 292 290 283 284 285 285 284 283 284 286 285 286 282 284 285
300 300 301 302 302 303 292 283 283 285 282 287 284 285 282 281 283 282 280 280 284 284 281 283 281 285 285 285 288 288 290 282 284 281 285 285 283 285 285 286 287 287 287 286
300 300 300 301 301 301 286 289 290 285 287 284 283 282 282 282 284 284 285 284 283 282 284 286 287 288 287 286 286 285 286 285 282 278 282 283 279 284 285 286 288 288 283 289
299 299 300 300 301 299 292 290 288 284 281 283 283 283 284 283 285 282 283 285 284 285 290 289 288 287 287 286 286 287 282 282 281 278 277 272 281 284 288 286 288 290 290 291
300 300 299 300 301 300 293 292 289 284 280 283 283 282 282 284 285 284 284 285 287 289 287 281 277 277 274 278 285 285 287 283 278 276 275 278 281 283 284 283 284 289 289 291
299 300 300 300 301 301 295 293 291 286 280 281 284 281 283 278 275 279 281 287 288 288 282 273 269 269 269 267 271 284 286 287 281 279 274 272 279 281 284 289 281 290 290 290
298 299 301 300 301 301 295 292 291 285 277 279 283 278 281 282 279 275 277 284 285 286 283 276 267 268 274 269 271 276 279 280 278 277 276 276 284 280 283 279 281 281 282 290
299 298 300 301 300 300 294 291 292 287 277 281 283 284 282 281 279 275 279 280 281 283 278 274 274 265 274 272 274 274 277 277 277 278 275 273 278 278 281 281 276 277 276 278
300 299 300 300 301 300 295 289 291 291 285 281 286 285 286 286 286 282 284 280 280 284 274 275 273 277 277 267 273 281 274 281 278 280 279 276 272 271 273 274 276 274 274 274
302 302 302 302 302 300 295 291 289 288 285 285 285 283 285 288 287 288 284 286 287 286 285 280 282 270 280 276 277 274 280 277 279 279 275 274 273 271 270 272 274 272 273 272
302 302 302 302 302 301 297 289 289 288 283 276 277 290 284 288 289 287 287 288 289 290 289 283 280 272 282 279 280 280 279 280 275 275 272 271 272 272 270 269 269 269 269 270
302 303 303 303 302 299 293 292 291 290 285 278 278 285 288 287 288 287 288 289 288 284 283 282 279 280 280 280 278 274 274 279 278 280 275 274 272 272 270 269 268 268 267 267
303 302 303 302 301 298 293 286 291 292 290 282 279 284 284 286 286 288 288 289 286 286 281 281 277 278 281 277 273 274 268 266 267 271 267 269 269 269 270 267 267 267 267 267
303 303 302 301 300 292 286 285 286 291 291 284 279 278 282 283 285 284 283 282 279 282 281 279 278 278 280 278 275 272 267 266 266 267 267 265 265 265 266 265 264 263 263 264
303 302 302 299 296 293 286 287 288 291 285 283 278 277 276 281 280 279 282 279 278 275 276 275 276 275 275 274 273 266 264 262 262 262 262 264 264 263 261 262 262 261 260 260
302 301 297 292 286 284 284 289 287 282 282 279 273 271 270 277 278 279 274 278 274 274 274 273 272 275 274 277 268 264 262 262 262 260 261 262 262 260 260 259 259 259 257 257
299 291 287 281 281 289 289 283 283 278 273 268 267 261 267 273 274 271 273 274 273 272 270 271 269 269 264 263 260 265 262 260 260 258 256 258 258 259 257 256 257 259 257 254
287 283 279 282 284 283 278 276 276 268 269 264 260 260 264 273 272 273 276 273 270 269 269 270 268 264 266 259 256 258 259 259 254 253 255 258 260 258 256 255 255 254 253 252
286 282 280 278 274 274 276 268 266 268 268 258 260 262 267 266 272 269 270 269 269 269 264 265 263 268 257 257 258 257 257 257 254 252 255 256 256 256 256 253 252 252 250 249
280 276 273 273 270 268 268 266 263 261 256 261 262 266 265 270 272 269 268 266 267 261 263 268 269 258 254 251 250 251 249 249 250 250 251 253 252 252 250 249 245 248 247 245
271 268 268 265 265 263 262 262 261 260 261 261 263 264 268 268 268 270 269 264 263 262 261 266 265 257 256 253 249 252 251 249 250 249 248 250 251 249 245 247 248 249 249 246
264 265 267 258 255 257 258 257 258 258 259 260 262 263 267 269 269 265 262 261 262 265 267 264 259 252 254 251 249 249 250 248 249 245 248 249 248 249 247 243 245 246 246 247
258 254 256 251 256 253 251 254 257 256 259 259 261 264 264 267 264 262 264 263 263 266 261 258 250 252 253 252 252 251 251 249 248 247 246 248 248 250 249 243 242 244 246 248
256 255 245 249 250 255 254 255 255 256 256 260 258 265 268 259 258 258 258 263 267 263 256 247 248 253 254 252 251 249 249 248 248 246 245 245 244 243 245 248 248 246 246 246
Wind_Speed
19 22 20 19 18 20 18 4 4 7 12 9 4 10 8 6 6 3 3 5 5 8 8 6 7 10 6 6 8 14 14 5 8 12 4 7 11 9 11 7 6 7 2 15
20 23 24 21 19 24 8 3 3 4 10 10 6 4 5 5 5 5 3 4 3 3 7 4 6 6 6 7 11 10 9 5 10 6 2 1 9 8 12 12 1 21 6 13
22 20 22 21 21 22 6 4 5 4 7 4 8 6 6 5 3 4 4 5 4 5 3 1 6 5 5 8 7 11 8 6 9 14 4 5 8 10 17 19 13 15 20 17
21 22 22 19 22 22 5 4 2 1 7 12 8 2 11 13 5 3 3 2 5 7 4 4 5 4 2 3 6 7 8 16 11 18 12 2 5 10 21 21 26 18 25 21
24 22 21 19 17 23 0 5 4 3 4 19 15 14 5 17 6 8 4 6 8 6 8 8 7 5 5 7 3 4 3 19 7 20 14 10 18 23 16 21 25 26 25 29
22 22 22 21 20 12 2 1 3 5 15 16 15 6 8 8 11 2 5 7 6 6 12 7 8 7 3 2 7 6 5 2 5 20 4 8 17 23 22 21 19 18 23 30
22 22 22 21 21 14 4 1 3 3 4 11 13 13 4 14 13 8 3 6 7 4 7 4 2 3 7 10 12 10 10 10 5 11 1 16 10 3 13 20 25 25 26 22
23 22 22 22 20 18 2 3 2 4 1 4 7 11 6 8 6 4 6 6 5 7 5 4 2 3 5 7 15 12 12 11 8 11 13 14 17 6 9 10 17 24 25 28
16 21 24 23 21 20 3 3 2 2 6 5 5 6 8 6 5 2 3 2 3 4 4 4 7 6 6 6 6 10 14 15 12 9 8 10 8 4 3 6 18 10 21 24
22 20 26 15 20 22 6 2 3 2 5 3 8 7 12 6 5 4 3 6 2 2 3 4 4 5 6 5 8 8 9 10 18 15 14 7 13 5 5 11 11 3 3 17
31 25 23 27 22 14 6 2 4 4 4 1 1 1 6 4 3 6 4 5 1 3 6 4 4 4 8 4 6 9 12 9 10 9 10 16 7 3 13 4 3 3 3 3
30 26 25 26 26 9 7 3 3 3 6 3 2 3 4 3 5 6 5 5 6 7 3 3 3 4 3 3 11 3 5 11 8 11 9 3 3 3 5 8 0 3 2 3
22 25 25 22 17 9 8 3 1 5 3 3 3 2 3 0 2 1 6 2 4 4 3 4 2 4 3 4 8 2 4 2 4 2 4 5 4 1 2 8 2 5 11 11
16 18 18 17 16 12 7 3 1 4 3 4 3 2 3 2 2 2 2 2 3 3 1 2 4 4 4 4 2 6 4 5 5 7 3 4 10 8 6 2 5 8 11 8
15 15 16 17 16 16 8 3 2 3 4 3 0 1 0 1 4 6 4 4 3 2 3 2 4 1 2 2 1 5 6 8 7 8 2 3 2 11 13 10 7 7 13 14
12 11 11 15 19 12 4 3 2 2 2 4 1 1 2 3 2 4 6 3 2 2 3 3 3 1 3 4 4 3 1 2 1 2 4 6 7 8 6 9 7 8 12 14
12 12 12 20 17 4 2 2 2 1 3 2 1 2 1 2 1 1 2 3 2 0 2 3 2 3 4 3 5 3 6 6 6 7 8 6 3 5 8 11 10 10 12 11
12 11 14 18 20 13 2 4 2 2 3 1 3 1 1 4 1 2 0 2 1 1 1 0 2 2 2 7 5 6 6 5 5 3 1 1 11 9 8 8 10 11 9 8
14 24 22 5 5 2 2 8 10 5 3 2 2 5 5 4 1 2 3 1 2 1 2 2 1 3 8 7 5 10 9 6 10 6 5 7 8 10 10 8 7 10 7 6
24 4 3 2 1 3 3 3 1 4 4 5 3 2 1 2 1 1 2 0 2 2 1 0 4 6 1 0 3 6 10 8 12 8 5 5 6 10 6 6 4 7 8 6
4 3 2 0 4 0 3 2 1 2 2 3 1 3 2 1 2 2 1 1 0 1 1 2 2 6 3 2 3 4 7 7 4 1 1 5 9 13 10 7 6 7 8 5
5 6 5 2 4 3 2 1 2 0 2 3 2 2 1 3 0 2 2 2 1 5 1 1 5 4 2 5 5 5 6 5 4 1 5 6 8 7 8 7 7 6 5 6
3 4 4 2 2 2 6 5 2 1 1 1 2 1 1 1 1 1 2 2 4 0 0 6 6 1 2 3 4 4 2 4 5 4 5 7 7 7 6 7 3 6 6 4
5 3 1 2 2 3 2 1 2 1 1 0 0 1 1 1 1 1 3 2 1 2 2 7 3 6 9 7 3 6 5 2 6 6 4 7 8 6 3 4 6 7 7 5
4 3 3 3 0 1 1 1 1 2 1 1 2 1 1 1 2 2 3 3 4 7 7 4 3 3 9 9 5 5 7 5 5 4 5 6 6 6 5 3 4 4 5 6
5 5 4 1 1 2 1 2 2 1 2 1 1 2 2 1 2 2 7 5 7 6 5 2 3 5 8 8 8 7 6 6 6 5 4 6 7 7 6 5 3 4 5 7
4 1 1 2 1 2 2 3 3 1 2 3 2 4 4 3 2 4 6 8 5 3 3 2 4 7 10 7 7 6 7 7 6 5 4 4 4 5 5 5 6 6 6 4
Wind_Direction
186 170 182 178 183 180 165 159 154 170 155 188 160 202 161 152 159 202 133 111 116 157 156 151 181 202 199 204 154 192 197 211 225 214 231 188 217 209 191 196 187 234 197 259
186 190 181 175 181 179 144 128 101 224 159 184 199 134 132 172 151 162 131 107 137 172 146 147 187 175 220 162 160 180 173 228 246 251 287 261 220 205 216 226 105 235 211 257
189 192 184 185 175 179 97 127 149 186 174 205 183 157 162 136 22 120 104 116 97 105 135 337 175 214 209 182 187 211 199 209 213 235 206 150 203 201 208 210 230 249 236 263
187 180 183 188 181 182 115 161 177 85 182 184 183 117 172 178 141 60 121 40 158 149 112 103 164 157 154 143 213 227 219 245 235 254 259 239 234 215 217 218 231 225 251 241
190 185 184 184 196 166 100 139 145 147 214 177 179 175 176 179 137 141 217 147 169 160 167 170 175 157 187 207 170 206 222 256 258 260 252 249 255 245 238 226 233 238 253 257
191 193 187 187 187 171 107 264 110 76 175 162 171 159 157 168 135 247 166 155 125 186 212 181 199 196 199 230 212 204 197 248 200 255 268 247 248 244 233 233 235 231 238 246
193 193 196 187 187 169 181 153 107 136 167 163 184 142 140 155 181 138 146 137 165 211 115 103 99 251 255 250 247 214 251 255 234 270 72 250 238 244 227 225 234 231 242 248
189 190 189 190 189 166 141 107 86 119 169 129 120 136 114 127 149 145 151 176 193 135 97 85 41 318 344 247 232 225 208 237 248 252 247 277 283 219 194 182 250 224 229 240
189 195 189 190 185 162 131 142 94 152 128 211 124 135 151 140 140 106 277 34 123 99 122 114 178 201 203 265 297 223 210 221 227 232 246 245 276 348 320 92 256 228 216 232
182 163 159 162 165 168 122 154 224 129 108 298 143 161 175 131 121 137 139 156 131 113 162 188 171 231 186 190 197 175 199 208 226 240 252 258 247 189 136 192 251 330 291 228
168 174 154 152 146 167 140 176 305 111 101 357 36 132 130 107 138 148 196 83 320 141 181 183 204 194 210 158 221 186 182 184 211 228 237 254 143 97 201 235 108 100 341 136
129 142 160 164 166 132 105 91 333 45 72 179 71 55 351 87 156 133 190 174 168 167 146 202 117 227 170 174 240 199 232 197 193 185 211 139 193 185 334 314 91 176 21 117
132 146 156 160 157 112 96 112 63 59 98 44 42 252 256 55 140 124 134 244 198 165 162 153 163 229 164 214 236 249 253 261 216 74 215 220 192 211 64 305 290 112 119 132
144 147 151 154 154 110 85 91 356 87 103 117 254 156 237 175 114 142 188 126 60 95 167 148 186 173 180 238 247 236 179 148 183 271 195 323 244 196 139 187 122 107 93 122
154 154 150 157 153 103 83 74 49 59 133 178 72 43 245 35 219 212 190 164 150 158 173 175 221 178 150 208 174 248 197 175 182 226 157 102 344 160 153 164 137 119 121 99
153 149 151 154 134 118 74 48 28 3 68 87 114 319 6 3 79 146 187 175 143 187 161 201 221 226 172 243 243 222 142 83 57 160 83 67 97 86 108 118 115 95 95 100
149 152 144 131 133 76 108 172 149 17 69 133 163 244 87 342 50 78 103 65 91 160 176 220 175 187 212 237 233 180 164 144 129 113 120 90 186 149 109 106 97 85 77 82
151 151 142 115 108 114 58 21 291 147 94 51 164 228 47 3 194 143 29 112 112 21 185 192 221 146 216 249 196 142 141 132 125 102 15 25 117 111 101 113 120 106 106 109
145 117 120 89 38 76 90 117 65 53 43 168 110 147 219 340 32 86 26 111 189 125 211 203 192 175 222 233 163 179 179 184 152 111 107 121 132 133 132 132 121 123 128 133
121 75 63 79 33 307 158 36 137 34 12 23 85 25 167 358 23 338 93 357 214 222 204 287 215 252 58 28 294 152 159 142 142 119 123 142 155 159 153 156 138 140 148 145
46 65 82 269 305 183 35 68 29 336 35 12 240 188 144 338 121 203 258 177 229 263 183 242 242 272 191 131 74 100 119 142 116 100 200 132 154 156 156 147 133 135 145 157
94 108 91 74 33 32 133 240 340 254 231 319 138 230 322 289 299 112 277 174 81 242 14 59 268 249 150 145 139 103 116 128 115 103 140 116 121 131 125 130 149 149 132 131
74 62 69 38 337 53 163 220 257 249 231 302 336 135 257 295 280 328 107 153 225 131 313 236 235 223 135 138 126 120 73 96 110 80 60 94 110 103 120 144 149 129 124 135
78 105 247 148 256 262 169 118 136 111 176 167 30 300 288 253 95 296 186 77 15 20 318 241 257 199 170 154 134 137 172 134 124 121 116 132 139 141 121 120 143 145 165 166
93 74 229 196 188 346 79 92 189 169 135 212 175 227 245 192 147 47 96 30 262 217 233 235 242 196 154 156 160 160 161 169 163 163 155 148 140 144 147 180 147 129 128 155
78 67 101 1 108 262 274 200 203 167 152 178 230 125 102 196 122 122 218 141 228 247 221 218 147 178 165 159 172 179 162 165 157 161 166 153 165 166 164 130 158 181 163 177
65 335 27 106 91 146 143 146 165 136 144 163 120 167 199 80 71 260 195 209 224 228 260 224 204 191 173 154 153 165 161 161 165 157 168 164 134 118 105 169 209 194 201 195